N3NDE Weather Reports


time (UTC)temp
C
wind
direction
speed
KPH
gust
KPH
rain 1hr
cm
rain 24hr
cm
rain mn
cm
humidity
%
barometer
mb
20260906234955 23 185 4.8 6.4 0.00 0.00 0.00 32 1018.1
20260906234449 24 205 6.4 9.7 0.00 0.00 0.00 32 1018.3
20260906233949 24 184 4.8 6.4 0.00 0.00 0.00 32 1018.4
20260906233449 24 195 4.8 6.4 0.00 0.00 0.00 31 1018.2
20260906232947 24 207 8.0 11.3 0.00 0.00 0.00 31 1018.3
20260906232443 24 177 4.8 6.4 0.00 0.00 0.00 32 1018.4
20260906231937 24 143 4.8 6.4 0.00 0.00 0.00 31 1018.2
20260906231427 25 161 6.4 9.7 0.00 0.00 0.00 30 1018.2
20260906230926 25 171 6.4 12.9 0.00 0.00 0.00 30 1018.4
20260906230421 25 189 4.8 4.8 0.00 0.00 0.00 30 1018.5
20260906225920 25 206 6.4 9.7 0.00 0.00 0.00 30 1018.7
20260906225415 25 201 1.6 3.2 0.00 0.00 0.00 30 1018.7
20260906224910 24 201 1.6 1.6 0.00 0.00 0.00 31 1018.9
20260906224407 24 203 4.8 4.8 0.00 0.00 0.00 32 1018.7
20260906223904 23 209 3.2 4.8 0.00 0.00 0.00 33 1018.8
20260906223359 23 224 6.4 6.4 0.00 0.00 0.00 33 1019.0
20260906222857 23 213 6.4 6.4 0.00 0.00 0.00 33 1018.8
20260906222356 23 199 6.4 9.7 0.00 0.00 0.00 34 1018.8
20260906221854 24 208 6.4 9.7 0.00 0.00 0.00 34 1018.9
20260906221354 25 212 6.4 9.7 0.00 0.00 0.00 33 1018.9
20260906220849 25 219 6.4 6.4 0.00 0.00 0.00 32 1018.9
20260906220344 25 209 6.4 9.7 0.00 0.00 0.00 31 1019.0
20260906215843 25 231 8.0 9.7 0.00 0.00 0.00 29 1019.0
20260906215338 25 241 8.0 9.7 0.00 0.00 0.00 28 1019.0
20260906214837 25 235 11.3 17.7 0.00 0.00 0.00 29 1018.9
20260906214336 25 209 12.9 14.5 0.00 0.00 0.00 28 1018.9
20260906213836 25 234 6.4 9.7 0.00 0.00 0.00 29 1019.1
20260906213336 25 209 9.7 12.9 0.00 0.00 0.00 29 1019.0
20260906212833 26 212 9.7 11.3 0.00 0.00 0.00 28 1019.3
20260906212328 26 201 6.4 9.7 0.00 0.00 0.00 27 1019.4
20260906211828 26 209 9.7 14.5 0.00 0.00 0.00 28 1019.4
20260906211323 25 231 8.0 9.7 0.00 0.00 0.00 29 1019.4
20260906210818 25 211 11.3 14.5 0.00 0.00 0.00 28 1019.3
20260906210318 25 237 6.4 6.4 0.00 0.00 0.00 28 1019.3
20260906205814 25 246 9.7 11.3 0.00 0.00 0.00 28 1019.5
20260906205310 26 210 4.8 6.4 0.00 0.00 0.00 27 1019.5
20260906204806 25 219 9.7 12.9 0.00 0.00 0.00 28 1019.5
20260906204304 26 208 11.3 14.5 0.00 0.00 0.00 27 1019.4
20260906203804 26 202 9.7 17.7 0.00 0.00 0.00 27 1019.5
20260906203300 26 194 1.6 3.2 0.00 0.00 0.00 27 1019.7
20260906202756 26 210 14.5 17.7 0.00 0.00 0.00 26 1019.9
20260906202256 26 205 6.4 9.7 0.00 0.00 0.00 26 1019.9
20260906201750 26 218 11.3 14.5 0.00 0.00 0.00 26 1019.6
20260906201250 26 248 16.1 20.9 0.00 0.00 0.00 26 1020.0
20260906200746 26 175 9.7 12.9 0.00 0.00 0.00 27 1019.9
20260906200242 26 184 9.7 11.3 0.00 0.00 0.00 26 1020.0
20260906195737 26 202 14.5 22.5 0.00 0.00 0.00 25 1020.0
20260906195233 26 188 6.4 11.3 0.00 0.00 0.00 26 1020.0
20260906194730 26 209 8.0 9.7 0.00 0.00 0.00 27 1020.3
20260906194225 26 228 11.3 24.1 0.00 0.00 0.00 27 1020.6
20260906193720 26 225 11.3 14.5 0.00 0.00 0.00 25 1020.3
20260906193220 26 210 12.9 16.1 0.00 0.00 0.00 26 1020.3
20260906192716 25 187 9.7 16.1 0.00 0.00 0.00 27 1020.2
20260906192210 25 215 16.1 20.9 0.00 0.00 0.00 27 1020.2
20260906191710 25 202 8.0 11.3 0.00 0.00 0.00 27 1020.2
20260906191204 25 236 12.9 16.1 0.00 0.00 0.00 27 1020.6
20260906190704 25 213 6.4 6.4 0.00 0.00 0.00 26 1020.7
20260906190159 25 221 16.1 22.5 0.00 0.00 0.00 26 1020.8
20260906185658 25 176 4.8 6.4 0.00 0.00 0.00 26 1020.9
20260906185157 26 200 17.7 22.5 0.00 0.00 0.00 25 1020.5
20260906184651 25 104 8.0 12.9 0.00 0.00 0.00 26 1020.6
20260906184147 25 181 8.0 9.7 0.00 0.00 0.00 26 1020.8
20260906183642 25 184 19.3 30.6 0.00 0.00 0.00 25 1020.6
20260906183139 26 218 11.3 12.9 0.00 0.00 0.00 24 1020.7
20260906182639 26 205 11.3 14.5 0.00 0.00 0.00 24 1020.6
20260906182135 26 179 12.9 17.7 0.00 0.00 0.00 24 1020.7
20260906181630 25 219 12.9 20.9 0.00 0.00 0.00 24 1020.8
20260906181126 26 189 11.3 22.5 0.00 0.00 0.00 25 1021.0
20260906180621 25 205 9.7 11.3 0.00 0.00 0.00 24 1020.8
20260906180121 25 197 12.9 16.1 0.00 0.00 0.00 25 1020.7
20260906175619 25 210 6.4 9.7 0.00 0.00 0.00 25 1021.2
20260906175114 26 199 6.4 9.7 0.00 0.00 0.00 24 1020.8
20260906174612 25 156 6.4 6.4 0.00 0.00 0.00 24 1021.0
20260906174107 25 186 9.7 12.9 0.00 0.00 0.00 24 1020.8
20260906173602 25 188 4.8 6.4 0.00 0.00 0.00 24 1021.2
20260906173058 25 196 1.6 1.6 0.00 0.00 0.00 26 1021.5
20260906172557 24 202 4.8 4.8 0.00 0.00 0.00 25 1021.5
20260906172053 25 229 9.7 12.9 0.00 0.00 0.00 25 1021.8
20260906171553 25 232 8.0 9.7 0.00 0.00 0.00 24 1021.2
20260906171049 25 234 8.0 11.3 0.00 0.00 0.00 25 1021.0
20260906170544 25 192 8.0 9.7 0.00 0.00 0.00 26 1021.4
20260906170043 25 188 8.0 12.9 0.00 0.00 0.00 26 1021.5
20260906165540 25 187 4.8 9.7 0.00 0.00 0.00 26 1021.4
20260906165035 25 195 6.4 12.9 0.00 0.00 0.00 26 1021.5
20260906164534 25 233 6.4 9.7 0.00 0.00 0.00 26 1021.9
20260906164030 25 150 3.2 4.8 0.00 0.00 0.00 27 1021.8
20260906163526 24 201 3.2 4.8 0.00 0.00 0.00 27 1021.9
20260906163021 24 217 14.5 17.7 0.00 0.00 0.00 27 1021.9
20260906162518 24 184 8.0 9.7 0.00 0.00 0.00 28 1021.6
20260906162013 24 212 11.3 16.1 0.00 0.00 0.00 28 1021.9
20260906161508 24 195 6.4 9.7 0.00 0.00 0.00 28 1021.9
20260906161008 24 198 4.8 4.8 0.00 0.00 0.00 29 1021.9
20260906160506 24 197 6.4 9.7 0.00 0.00 0.00 28 1021.9
20260906160005 24 234 11.3 14.5 0.00 0.00 0.00 29 1022.1
20260906155503 24 200 0.0 0.0 0.00 0.00 0.00 30 1022.0
20260906154959 23 191 3.2 4.8 0.00 0.00 0.00 29 1021.9
20260906154455 24 190 6.4 9.7 0.00 0.00 0.00 28 1021.9
20260906153953 23 209 3.2 3.2 0.00 0.00 0.00 29 1022.2
20260906153451 23 198 3.2 3.2 0.00 0.00 0.00 30 1022.0
20260906152948 23 205 0.0 0.0 0.00 0.00 0.00 31 1021.8
20260906152447 22 195 1.6 3.2 0.00 0.00 0.00 31 1022.0
20260906151946 22 194 1.6 3.2 0.00 0.00 0.00 31 1022.0
20260906151442 22 293 8.0 9.7 0.00 0.00 0.00 33 1021.9
20260906150938 22 203 1.6 1.6 0.00 0.00 0.00 33 1021.8
20260906150433 21 196 0.0 0.0 0.00 0.00 0.00 34 1022.1
20260906145932 21 214 0.0 1.6 0.00 0.00 0.00 36 1022.0
20260906145431 22 212 3.2 4.8 0.00 0.00 0.00 31 1022.0
20260906144926 22 198 1.6 1.6 0.00 0.00 0.00 31 1022.1
20260906144421 21 202 0.0 0.0 0.00 0.00 0.00 33 1022.0
20260906143917 21 200 0.0 0.0 0.00 0.00 0.00 34 1022.0
20260906143412 20 199 1.6 1.6 0.00 0.00 0.00 35 1021.9
20260906142908 19 203 0.0 1.6 0.00 0.00 0.00 36 1021.9
20260906142407 19 201 1.6 1.6 0.00 0.00 0.00 38 1022.0
20260906141902 18 198 0.0 0.0 0.00 0.00 0.00 37 1022.0
20260906141401 18 203 1.6 1.6 0.00 0.00 0.00 37 1021.8
20260906140856 18 197 0.0 0.0 0.00 0.00 0.00 38 1021.8
20260906140351 17 187 3.2 3.2 0.00 0.00 0.00 38 1021.9
20260906135849 17 168 3.2 4.8 0.00 0.00 0.00 39 1021.9
20260906135348 16 183 1.6 1.6 0.00 0.00 0.00 40 1021.8
20260906134844 15 172 1.6 1.6 0.00 0.00 0.00 42 1021.8
20260906134339 15 198 0.0 1.6 0.00 0.00 0.00 43 1021.6
20260906133834 15 194 0.0 0.0 0.00 0.00 0.00 43 1021.5
20260906133330 13 192 0.0 1.6 0.00 0.00 0.00 44 1021.6
20260906132825 13 189 0.0 1.6 0.00 0.00 0.00 45 1021.5
20260906132320 13 195 0.0 0.0 0.00 0.00 0.00 45 1021.5
20260906131816 13 188 0.0 0.0 0.00 0.00 0.00 44 1021.6
20260906131311 13 170 3.2 3.2 0.00 0.00 0.00 44 1021.4
20260906130807 13 195 0.0 0.0 0.00 0.00 0.00 45 1021.3
20260906130306 13 176 1.6 3.2 0.00 0.00 0.00 44 1021.4
20260906125805 13 196 0.0 1.6 0.00 0.00 0.00 44 1021.4
20260906125306 13 195 1.6 1.6 0.00 0.00 0.00 44 1021.4
20260906124758 13 191 1.6 1.6 0.00 0.00 0.00 44 1021.3
20260906124254 13 183 1.6 1.6 0.00 0.00 0.00 44 1021.4
20260906123753 13 191 0.0 1.6 0.00 0.00 0.00 43 1021.4
20260906123248 14 191 1.6 3.2 0.00 0.00 0.00 43 1021.3
20260906122747 14 197 1.6 3.2 0.00 0.00 0.00 42 1021.3
20260906122243 14 188 1.6 1.6 0.00 0.00 0.00 42 1021.3
20260906121739 13 186 0.0 1.6 0.00 0.00 0.00 43 1021.4
20260906121235 13 184 0.0 1.6 0.00 0.00 0.00 44 1021.4
20260906120731 14 197 0.0 0.0 0.00 0.00 0.00 43 1021.3
20260906120228 15 196 0.0 0.0 0.00 0.00 0.00 41 1021.3
20260906115723 15 194 0.0 1.6 0.00 0.00 0.00 39 1021.3
20260906115218 16 190 1.6 1.6 0.00 0.00 0.00 38 1021.2
20260906114717 16 183 3.2 4.8 0.00 0.00 0.00 37 1021.5
20260906114212 16 197 3.2 3.2 0.00 0.00 0.00 37 1021.4
20260906113707 16 189 1.6 1.6 0.00 0.00 0.00 37 1021.2
20260906113207 16 198 0.0 0.0 0.00 0.00 0.00 37 1021.3
20260906112706 16 191 0.0 0.0 0.00 0.00 0.00 37 1021.4
20260906112203 16 188 1.6 1.6 0.00 0.00 0.00 37 1021.5
20260906111703 16 193 0.0 1.6 0.00 0.00 0.00 37 1021.4
20260906111157 16 190 0.0 1.6 0.00 0.00 0.00 37 1021.4
20260906110652 16 208 3.2 4.8 0.00 0.00 0.00 37 1021.5
20260906110148 16 190 0.0 1.6 0.00 0.00 0.00 37 1021.6
20260906105642 16 195 1.6 1.6 0.00 0.00 0.00 37 1021.4
20260906105138 16 195 0.0 0.0 0.00 0.00 0.00 37 1021.4
20260906104638 16 196 0.0 0.0 0.00 0.00 0.00 36 1021.5
20260906104136 16 193 0.0 0.0 0.00 0.00 0.00 36 1021.4
20260906103635 16 191 0.0 1.6 0.00 0.00 0.00 36 1021.2
20260906103131 15 198 0.0 1.6 0.00 0.00 0.00 36 1021.4
20260906102626 16 192 0.0 0.0 0.00 0.00 0.00 36 1021.2
20260906102126 16 197 0.0 0.0 0.00 0.00 0.00 35 1021.2
20260906101625 16 193 0.0 0.0 0.00 0.00 0.00 35 1021.4
20260906101125 16 191 0.0 0.0 0.00 0.00 0.00 35 1021.0
20260906100622 16 196 0.0 0.0 0.00 0.00 0.00 36 1020.9
20260906100122 16 193 0.0 0.0 0.00 0.00 0.00 35 1021.3
20260906095622 16 194 1.6 1.6 0.00 0.00 0.00 35 1021.3
20260906095118 16 191 1.6 1.6 0.00 0.00 0.00 35 1021.4
20260906094616 16 195 0.0 0.0 0.00 0.00 0.00 35 1021.2
20260906094112 15 191 1.6 3.2 0.00 0.00 0.00 36 1021.3
20260906093608 16 179 0.0 0.0 0.00 0.00 0.00 36 1021.3
20260906093103 16 190 1.6 1.6 0.00 0.00 0.00 36 1021.2
20260906092558 16 190 1.6 1.6 0.00 0.00 0.00 35 1021.4
20260906092053 16 162 0.0 0.0 0.00 0.00 0.00 35 1021.3
20260906091549 16 181 1.6 1.6 0.00 0.00 0.00 35 1021.3
20260906091045 16 190 1.6 1.6 0.00 0.00 0.00 34 1021.5
20260906090545 16 188 3.2 4.8 0.00 0.00 0.00 34 1021.2
20260906090040 16 182 4.8 9.7 0.00 0.00 0.00 34 1021.0
20260906085539 17 182 1.6 3.2 0.00 0.00 0.00 33 1021.0
20260906085038 17 161 3.2 4.8 0.00 0.00 0.00 33 1021.2
20260906084533 17 190 3.2 3.2 0.00 0.00 0.00 33 1021.2
20260906084032 17 184 1.6 1.6 0.00 0.00 0.00 32 1021.3
20260906083528 17 195 1.6 1.6 0.00 0.00 0.00 33 1021.0
20260906083027 16 193 1.6 1.6 0.00 0.00 0.00 33 1021.0
20260906082522 16 194 0.0 0.0 0.00 0.00 0.00 34 1021.2
20260906082019 16 192 3.2 4.8 0.00 0.00 0.00 33 1020.9
20260906081514 16 185 1.6 3.2 0.00 0.00 0.00 34 1020.8
20260906081009 16 192 0.0 0.0 0.00 0.00 0.00 34 1020.9
20260906080506 16 153 1.6 3.2 0.00 0.00 0.00 35 1021.3
20260906080001 16 179 1.6 1.6 0.00 0.00 0.00 35 1021.2
20260906075455 16 194 0.0 1.6 0.00 0.00 0.00 34 1021.0
20260906074951 16 196 0.0 0.0 0.00 0.00 0.00 35 1021.2
20260906074451 16 190 1.6 1.6 0.00 0.00 0.00 34 1021.3
20260906073949 16 181 1.6 1.6 0.00 0.00 0.00 33 1021.4
20260906073444 16 181 3.2 3.2 0.00 0.00 0.00 34 1021.3
20260906072941 16 193 1.6 1.6 0.00 0.00 0.00 35 1021.3
20260906072435 16 192 3.2 3.2 0.00 0.00 0.00 34 1021.2
20260906071932 16 190 6.4 6.4 0.00 0.00 0.00 34 1021.3
20260906071427 16 181 1.6 3.2 0.00 0.00 0.00 34 1021.3
20260906070923 17 173 4.8 4.8 0.00 0.00 0.00 34 1021.3
20260906070419 16 161 4.8 4.8 0.00 0.00 0.00 34 1021.2
20260906065915 16 187 1.6 1.6 0.00 0.00 0.00 34 1021.4
20260906065409 16 166 4.8 4.8 0.00 0.00 0.00 34 1021.3
20260906064905 16 155 3.2 3.2 0.00 0.00 0.00 34 1021.3
20260906064401 16 87 6.4 6.4 0.00 0.00 0.00 34 1021.3
20260906063900 16 189 1.6 1.6 0.00 0.00 0.00 35 1021.3
20260906063355 16 182 1.6 3.2 0.00 0.00 0.00 34 1021.2
20260906062851 16 164 3.2 4.8 0.00 0.00 0.00 34 1020.9
20260906062350 16 178 3.2 3.2 0.00 0.00 0.00 34 1021.2
20260906061845 16 185 1.6 3.2 0.00 0.00 0.00 34 1021.0
20260906061342 16 112 4.8 6.4 0.00 0.00 0.00 34 1020.9
20260906060836 16 180 3.2 3.2 0.00 0.00 0.00 33 1020.8
20260906060334 16 168 3.2 3.2 0.00 0.00 0.00 33 1021.0
20260906055830 17 167 3.2 3.2 0.00 0.00 0.00 32 1020.9
20260906055325 17 168 3.2 4.8 0.00 0.00 0.00 32 1020.8
20260906054820 17 163 3.2 3.2 0.00 0.00 0.00 31 1021.3
20260906054315 17 170 4.8 4.8 0.00 0.00 0.00 31 1021.0
20260906053812 17 167 3.2 3.2 0.00 0.00 0.00 32 1021.0
20260906053307 17 147 4.8 6.4 0.00 0.00 0.00 31 1021.0
20260906052802 17 120 6.4 9.7 0.00 0.00 0.00 32 1021.0
20260906052258 17 82 4.8 6.4 0.00 0.00 0.00 32 1021.2
20260906051755 17 168 3.2 4.8 0.00 0.00 0.00 32 1021.0
20260906051254 17 175 3.2 3.2 0.00 0.00 0.00 31 1021.0
20260906050750 17 180 3.2 3.2 0.00 0.00 0.00 31 1020.9
20260906050245 17 178 1.6 3.2 0.00 0.00 0.00 31 1021.2
20260906045744 17 174 3.2 3.2 0.00 0.00 0.00 31 1021.2
20260906045239 17 178 3.2 4.8 0.00 0.00 0.00 31 1020.9
20260906044735 17 176 1.6 3.2 0.00 0.00 0.00 31 1021.3
20260906044229 17 159 3.2 4.8 0.00 0.00 0.00 30 1021.2
20260906043726 17 169 4.8 6.4 0.00 0.00 0.00 30 1020.9
20260906043221 18 187 3.2 3.2 0.00 0.00 0.00 30 1021.3
20260906042721 18 190 1.6 3.2 0.00 0.00 0.00 30 1021.0
20260906042220 18 182 3.2 4.8 0.00 0.00 0.00 29 1021.2
20260906041716 18 189 3.2 4.8 0.00 0.00 0.00 29 1020.9
20260906041211 18 66 6.4 11.3 0.00 0.00 0.00 30 1021.0
20260906040706 18 190 9.7 11.3 0.00 0.00 0.00 31 1020.8
20260906040201 18 170 4.8 4.8 0.00 0.00 0.00 31 1020.9
20260906035657 18 194 6.4 6.4 0.00 0.00 0.00 31 1020.8
20260906035153 18 120 3.2 4.8 0.00 0.00 0.00 30 1020.9
20260906034647 18 181 6.4 11.3 0.00 0.00 0.00 30 1020.8
20260906034142 18 194 3.2 3.2 0.00 0.00 0.00 31 1021.0
20260906033638 18 192 0.0 1.6 0.00 0.00 0.00 30 1020.9
20260906033137 17 191 1.6 3.2 0.00 0.00 0.00 31 1020.8
20260906032635 18 185 0.0 1.6 0.00 0.00 0.00 31 1020.5
20260906032134 18 187 0.0 0.0 0.00 0.00 0.00 31 1020.6
20260906031629 17 178 6.4 9.7 0.00 0.00 0.00 31 1020.3
20260906031125 18 155 4.8 4.8 0.00 0.00 0.00 30 1020.5
20260906030624 18 196 0.0 1.6 0.00 0.00 0.00 29 1020.3
20260906030119 18 188 3.2 4.8 0.00 0.00 0.00 29 1020.2
20260906025619 18 178 3.2 4.8 0.00 0.00 0.00 29 1020.2
20260906025118 18 173 1.6 3.2 0.00 0.00 0.00 30 1020.1
20260906024613 18 171 1.6 1.6 0.00 0.00 0.00 29 1020.1
20260906024107 19 181 3.2 3.2 0.00 0.00 0.00 28 1019.9
20260906023604 20 175 3.2 3.2 0.00 0.00 0.00 27 1020.0
20260906023103 20 185 3.2 3.2 0.00 0.00 0.00 27 1019.7
20260906022558 19 178 3.2 4.8 0.00 0.00 0.00 27 1019.5
20260906022054 19 190 1.6 1.6 0.00 0.00 0.00 28 1019.4
20260906021550 19 186 3.2 4.8 0.00 0.00 0.00 29 1019.3
20260906021048 20 164 1.6 1.6 0.00 0.00 0.00 28 1019.3
20260906020548 20 129 6.4 6.4 0.00 0.00 0.00 28 1019.3
20260906020048 21 186 1.6 1.6 0.00 0.00 0.00 26 1019.4
20260906015548 21 192 0.0 1.6 0.00 0.00 0.00 25 1019.3
20260906015047 22 191 0.0 0.0 0.00 0.00 0.00 24 1019.3
20260906014542 22 193 0.0 1.6 0.00 0.00 0.00 23 1019.4
20260906014038 23 196 0.0 0.0 0.00 0.00 0.00 24 1019.3
20260906013533 24 184 3.2 3.2 0.00 0.00 0.00 24 1019.4
20260906013029 25 208 1.6 3.2 0.00 0.00 0.00 22 1019.1
20260906012524 25 208 3.2 3.2 0.00 0.00 0.00 22 1019.4
20260906012023 25 232 4.8 4.8 0.00 0.00 0.00 21 1019.3
20260906011519 26 218 4.8 4.8 0.00 0.00 0.00 21 1019.3
20260906011019 26 225 6.4 9.7 0.00 0.00 0.00 20 1019.5
20260906010514 26 213 6.4 9.7 0.00 0.00 0.00 20 1019.5
20260906010011 26 209 6.4 9.7 0.00 0.00 0.00 20 1019.5
20260906005510 26 252 6.4 6.4 0.00 0.00 0.00 20 1019.3
20260906005009 26 224 6.4 9.7 0.00 0.00 0.00 19 1019.5
20260906004509 26 236 9.7 12.9 0.00 0.00 0.00 19 1019.5
20260906004004 27 216 4.8 4.8 0.00 0.00 0.00 19 1019.4
20260906003459 27 231 9.7 12.9 0.00 0.00 0.00 19 1019.5
20260906002954 27 216 9.7 12.9 0.00 0.00 0.00 18 1019.3
20260906002454 27 287 12.9 14.5 0.00 0.00 0.00 19 1019.3
20260906001950 27 246 6.4 9.7 0.00 0.00 0.00 19 1019.3
20260906001446 27 259 11.3 12.9 0.00 0.00 0.00 19 1019.3
20260906000940 27 268 12.9 16.1 0.00 0.00 0.00 18 1019.5
20260906000436 27 223 6.4 9.7 0.00 0.00 0.00 19 1019.3
20260905235930 27 254 9.7 11.3 0.00 0.00 0.00 19 1019.1
20260905235430 27 260 14.5 16.1 0.00 0.00 0.00 18 1019.0